Hourly Data Report for June 18, 2021

POND INLET A
NUNAVUT
Current Station Operator: NAVCAN

72°41'22.000" N
77°58'08.000" W
61.60 m
2403206
71095
YIO

Download Data

Hourly Data (June 2021)
Hourly Data Report for June 18, 2021
TIME
LST
Temp Definition
°C
Dew Point Definition
°C
Rel Hum Definition
%
Precip. Amount Definition
mm

Wind Dir Definition
10's deg

Wind Spd Definition
km/h
Visibility Definition
km
Stn Press Definition
kPa
Hmdx Definition


Wind Chill Definition


Weather Definition


00:00 3.2 -1.6 71 0.0 6 18 16.1 99.62     LegendNANA
01:00 2.7 -1.4 74 0.0 6 17 16.1 99.64     LegendNANA
02:00 3.0 -1.2 74 0.0 6 13 16.1 99.69     LegendNANA
03:00 3.3 -0.8 75 0.0 7 8 16.1 99.74     LegendNANA
04:00 3.7 -1.4 69 0.0 5 8 16.1 99.77     LegendNANA
05:00 3.8 -0.6 73 0.0 6 8 16.1 99.81     LegendNANA
06:00 2.5 -0.4 81 0.0 4 13 16.1 99.82     Rain
07:00 3.4 -0.5 75 0.0 7 24 16.1 99.85     Rain
08:00 3.1 -0.7 76 0.0 5 22 16.1 99.86     LegendNANA
09:00 4.1 -0.6 71 0.0 6 18 16.1 99.87     LegendNANA
10:00 4.3 -0.5 71 0.0 5 28 16.1 99.91     LegendNANA
11:00 4.5 0.5 75 0.0 5 35 16.1 99.95     LegendNANA
12:00 4.7 -0.4 70 0.0 5 30 16.1 99.98     LegendNANA
13:00 4.3 -0.5 71 0.0 6 32 16.1 100.00     LegendNANA
14:00 4.2 -0.6 71 0.0 5 41 16.1 100.02     LegendNANA
15:00 4.7 -0.2 71 0.0 5 35 16.1 100.04     LegendNANA
16:00 4.6 0.0 72 0.0 5 30 16.1 100.06     LegendNANA
17:00 4.6 -0.8 68 0.0 5 45 16.1 100.01     LegendNANA
18:00 4.3 -0.8 70 0.0 5 43 16.1 100.04     LegendNANA
19:00 3.9 -1.2 69 0.0 4 32 16.1 100.10     LegendNANA
20:00 3.6 -1.5 69 0.0 5 41 16.1 100.12     LegendNANA
21:00 3.4 -2.0 68 0.0 5 28 16.1 100.14     LegendNANA
22:00 3.1 -2.2 68 0.0 6 46 16.1 100.17     LegendNANA
23:00 2.5 -2.8 68 0.0 5 46 16.1 100.16     LegendNANA

Notes on Data Quality.

Legend

  • E = Estimated
  • M = Missing
  • NA = Not Available*
  • [empty] = Indicates an unobserved value
Date modified: